Weather Roundup
Issued by NWS

Home | Current Version | Previous Version | Graphics & Text | Print | Product List | Glossary Off
Versions: 1 2 3 4 5 6 7 8 9 10 11 12 13 14 15 16 17 18 19 20 21 22 23 24 25 26 27 28 29 30 31 32 33 34 35 36 37 38 39 40 41 42 43 44 45 46 47 48 49 50

000
NZUS93 KARX 261510
HRRWXR

CURRENT HOURLY OBSERVATIONS ACROSS
MUCH OF THE UPPER MISSISSIPPI VALLEY
NATIONAL WEATHER SERVICE LA CROSSE WI
900 AM CST WED NOV 26 2014


...SOUTHEAST MINNESOTA...


CITY           SKY/WX    TMP DP  RH WIND       PRES   REMARKS
ROCHESTER      LGT SNOW  21  18  88 E13       30.05R VSB 3/4 WCI   9
ROCHESTER/MAYO CLOUDY    23  17  78 E6        30.06S WCI  15
WINONA         PTSUNNY   23  19  86 SE7       30.13R WCI  15
AUSTIN         CLOUDY    25  21  86 E10       30.03R WCI  15
ALBERT LEA     LGT SNOW  27  25  93 E8        30.01R VSB 1   WCI  18
DODGE CENTER   LGT SNOW  23  21  93 E13       30.04R WCI  11
PRESTON        CLOUDY    21  17  86 E7        30.06R WCI  12
OWATONNA       LGT SNOW  23  19  86 NE9       30.05R WCI  13
FARIBAULT      LGT SNOW  21  19  93 N9        30.08R WCI  11
$$

...ELSEWHERE IN MINNESOTA...


CITY           SKY/WX    TMP DP  RH WIND       PRES   REMARKS
MINNEAPOLIS    LGT SNOW  23  20  88 NE8       30.14R VSB 3/4 WCI  14
INTNL FALLS    CLEAR      4  -1  80 N13       30.26R WCI -13
DULUTH         FLURRIES  18  12  77 N10       30.13R WCI   6
RED WING       LGT SNOW  25  18  74 E5        30.12R WCI  19
REDWOOD FALLS  SNOW      24  21  88 N12       30.13R VSB 1/4 WCI  13
MANKATO        CLOUDY    23  19  86 NE14      30.08R VSB 1/4 WCI  11
WORTHINGTON    CLOUDY    21  19  93 N18G26    30.06R WCI   6
FAIRMONT       CLOUDY    25  21  86 N12       30.03R WCI  14
$$

...SOUTHWEST WISCONSIN...


CITY           SKY/WX    TMP DP  RH WIND       PRES   REMARKS
LA CROSSE      CLOUDY    22  16  78 E7        30.13R WCI  13
PRAIRIE DU CHI CLOUDY    20  16  84 SE3       30.11S
BOSCOBEL       CLOUDY    18  14  84 NE7       30.13S WCI   9
LONE ROCK      CLOUDY    17  12  80 CALM      30.14S
PLATTEVILLE    CLOUDY    18  16  95 E10       30.11R WCI   6
FORT MC COY    CLOUDY    19  16  88 CALM      30.13S
CAMP DOUGLAS   CLOUDY    16  16 100 E2        30.13S
VIROQUA        CLOUDY    17  17  98 E7        30.08R WCI   8
WIS DELLS      CLOUDY    14  12  92 CALM      30.12S FOG
$$

...ELSEWHERE IN WISCONSIN...


CITY           SKY/WX    TMP DP  RH WIND       PRES   REMARKS
MILWAUKEE      PTSUNNY   21  17  84 NW5       30.15S FOG     WCI  15
MADISON        FOG       13  12  96 E6        30.14S VSB 3/4 WCI   4
GREEN BAY      CLOUDY    17  15  92 CALM      30.18R FOG
EAU CLAIRE     CLOUDY    22  16  78 E3        30.13R
BLACK RVR FLS  CLOUDY    20  16  86 CALM      30.13S
MEDFORD        CLOUDY    19  14  82 CALM      30.10R
WAUSAU         CLOUDY    18  15  88 SE7       30.10S WCI   9
WIS RAPIDS     CLOUDY    16  12  84 E6        30.14F WCI   7
MARSHFIELD     CLOUDY    19  14  81 SE7       30.11R WCI  10
RICE LAKE      CLOUDY    22  18  83 CALM      30.14R
$$

...NORTHEAST IOWA...


CITY           SKY/WX    TMP DP  RH WIND       PRES   REMARKS
DECORAH        PTSUNNY   21  18  86 SE8G15    30.05S WCI  12
MASON CITY     LGT SNOW  26  21  81 E14       30.01R WCI  14
CHARLES CITY   PTSUNNY   25  21  86 E13       30.03R WCI  13
OELWEIN        MOSUNNY   27  21  80 E14       30.03R WCI  15
$$

...ELSEWHERE IN IOWA...


CITY           SKY/WX    TMP DP  RH WIND       PRES   REMARKS
DES MOINES     LGT SNOW  30  26  85 E9        29.90R FOG     WCI  22
IOWA CITY      CLOUDY    27  22  81 E8        30.03S WCI  19
FORT DODGE     CLOUDY    27  21  80 E14       29.96R WCI  15
$$

...NORTHERN ILLINOIS...


CITY           SKY/WX    TMP DP  RH WIND       PRES   REMARKS
CHICAGO-OHARE  CLOUDY    22  18  85 CALM      30.15S FOG
CHICAGO-MIDWAY CLOUDY    26  20  77 SE10      30.16S WCI  16
MOLINE         SUNNY     24  20  84 E14       30.06S WCI  12
ROCKFORD       CLOUDY    21  17  84 E7        30.15S FOG     WCI  12
PEORIA         MOSUNNY   28  22  78 E10       30.09F WCI  19
$$

NOTE: "FAIR" INDICATES FEW OR NO CLOUDS BELOW 12,000 FEET WITH NO
SIGNIFICANT WEATHER AND/OR OBSTRUCTIONS TO VISIBILITY. WIND
SPEEDS ARE IN MILES-PER-HOUR.



USA.gov is the U.S. government's official web portal to all federal, state and local government web resources and services.